TimeMDT,TemperatureF,Dew PointF,Humidity,Sea Level PressureIn,VisibilityMPH,Wind Direction,Wind SpeedMPH,Gust SpeedMPH,PrecipitationIn,Events,Conditions,WindDirDegrees,DateUTC
12:53 AM,30.0,27.0,88,30.17,10.0,Calm,Calm,-,N/A,,Clear,0,2012-11-03 06:53:00
1:53 AM,28.9,26.1,89,30.16,10.0,Calm,Calm,-,N/A,,Clear,0,2012-11-03 07:53:00
2:53 AM,28.0,25.0,88,30.16,10.0,Calm,Calm,-,N/A,,Clear,0,2012-11-03 08:53:00
3:53 AM,27.0,25.0,92,30.16,10.0,Calm,Calm,-,N/A,,Clear,0,2012-11-03 09:53:00
4:53 AM,27.0,25.0,92,30.16,10.0,Calm,Calm,-,N/A,,Clear,0,2012-11-03 10:53:00
5:53 AM,27.0,24.1,89,30.19,10.0,Calm,Calm,-,N/A,,Clear,0,2012-11-03 11:53:00
6:53 AM,24.1,21.0,88,30.22,10.0,Calm,Calm,-,N/A,,Clear,0,2012-11-03 12:53:00
7:53 AM,23.0,21.0,92,30.23,10.0,Calm,Calm,-,N/A,,Clear,0,2012-11-03 13:53:00
8:53 AM,30.0,27.0,88,30.24,10.0,Calm,Calm,-,N/A,,Clear,0,2012-11-03 14:53:00
9:53 AM,39.0,30.9,73,30.20,10.0,Calm,Calm,-,N/A,,Clear,0,2012-11-03 15:53:00
10:53 AM,46.0,32.0,58,30.18,10.0,Calm,Calm,-,N/A,,Clear,0,2012-11-03 16:53:00
11:53 AM,50.0,28.9,44,30.16,10.0,Calm,Calm,-,N/A,,Clear,0,2012-11-03 17:53:00
12:53 PM,55.9,28.0,34,30.13,10.0,NE,4.6,-,N/A,,Clear,40,2012-11-03 18:53:00
1:53 PM,59.0,27.0,29,30.11,10.0,Calm,Calm,-,N/A,,Clear,0,2012-11-03 19:53:00
2:53 PM,60.1,23.0,24,30.09,10.0,Calm,Calm,-,N/A,,Clear,0,2012-11-03 20:53:00
3:53 PM,61.0,23.0,23,30.09,10.0,Calm,Calm,-,N/A,,Clear,0,2012-11-03 21:53:00
4:53 PM,60.1,23.0,24,30.10,10.0,Calm,Calm,-,N/A,,Partly Cloudy,0,2012-11-03 22:53:00
5:53 PM,43.0,28.9,58,30.15,10.0,WSW,3.5,-,N/A,,Clear,250,2012-11-03 23:53:00
6:53 PM,41.0,28.9,62,30.16,10.0,South,3.5,-,N/A,,Clear,170,2012-11-04 00:53:00
7:53 PM,37.0,27.0,67,30.17,10.0,Calm,Calm,-,N/A,,Clear,0,2012-11-04 01:53:00
8:53 PM,37.0,27.0,67,30.15,10.0,Calm,Calm,-,N/A,,Clear,0,2012-11-04 02:53:00
9:53 PM,37.0,27.0,67,30.13,10.0,Calm,Calm,-,N/A,,Clear,0,2012-11-04 03:53:00
10:53 PM,34.0,27.0,75,30.12,10.0,SW,4.6,-,N/A,,Clear,230,2012-11-04 04:53:00
11:53 PM,39.0,28.0,65,30.08,10.0,SE,3.5,-,N/A,,Clear,140,2012-11-04 05:53:00